QPF
0.00 0.00 0.00 0.01 0.01 0.00 0.00 0.00 0.02 0.02 0.01 0.01 0.02 0.01 0.02 0.02 0.04 0.05 0.03 0.03 0.05 0.05 0.06 0.07 0.07 0.08 0.09 0.08 0.10 0.13 0.13 0.13 0.11 0.07 0.06 0.06 0.07 0.12
0.00 0.00 0.01 0.01 0.01 0.00 0.00 0.00 0.00 0.01 0.01 0.01 0.01 0.01 0.02 0.02 0.03 0.04 0.05 0.05 0.05 0.06 0.06 0.07 0.07 0.07 0.07 0.07 0.08 0.07 0.08 0.07 0.08 0.06 0.05 0.05 0.06 0.09
0.00 0.00 0.00 0.01 0.01 0.01 0.00 0.00 0.00 0.00 0.00 0.01 0.01 0.01 0.02 0.04 0.05 0.04 0.04 0.04 0.03 0.05 0.06 0.05 0.05 0.05 0.04 0.04 0.06 0.06 0.05 0.05 0.05 0.07 0.06 0.05 0.04 0.05
0.00 0.00 0.00 0.00 0.01 0.00 0.00 0.00 0.00 0.00 0.00 0.01 0.01 0.01 0.01 0.02 0.03 0.03 0.03 0.03 0.03 0.04 0.06 0.06 0.06 0.05 0.04 0.04 0.04 0.06 0.05 0.05 0.05 0.05 0.05 0.05 0.06 0.06
0.00 0.00 0.00 0.00 0.00 0.01 0.01 0.00 0.01 0.01 0.00 0.00 0.01 0.01 0.01 0.02 0.02 0.02 0.02 0.02 0.02 0.03 0.05 0.06 0.06 0.05 0.04 0.04 0.04 0.05 0.05 0.06 0.06 0.06 0.06 0.07 0.06 0.05
0.00 0.00 0.00 0.00 0.01 0.01 0.01 0.01 0.01 0.01 0.00 0.00 0.00 0.01 0.00 0.01 0.01 0.01 0.01 0.01 0.02 0.03 0.04 0.05 0.07 0.07 0.05 0.05 0.05 0.06 0.07 0.07 0.07 0.06 0.06 0.06 0.07 0.06
0.00 0.00 0.00 0.00 0.01 0.01 0.01 0.01 0.01 0.01 0.01 0.00 0.01 0.01 0.01 0.01 0.01 0.02 0.01 0.01 0.02 0.03 0.04 0.05 0.07 0.07 0.06 0.05 0.05 0.05 0.06 0.07 0.07 0.07 0.07 0.07 0.06 0.07
0.00 0.00 0.00 0.00 0.01 0.02 0.01 0.01 0.01 0.01 0.01 0.01 0.01 0.01 0.01 0.01 0.01 0.01 0.02 0.02 0.02 0.02 0.03 0.04 0.06 0.08 0.08 0.06 0.05 0.04 0.04 0.06 0.07 0.07 0.07 0.07 0.07 0.07
0.00 0.00 0.00 0.00 0.01 0.01 0.02 0.03 0.03 0.03 0.02 0.01 0.02 0.03 0.02 0.02 0.01 0.01 0.01 0.02 0.02 0.04 0.03 0.03 0.04 0.05 0.07 0.08 0.08 0.06 0.05 0.05 0.05 0.05 0.05 0.06 0.07 0.07
0.00 0.00 0.00 0.00 0.00 0.01 0.01 0.02 0.03 0.03 0.02 0.01 0.02 0.03 0.03 0.03 0.03 0.02 0.02 0.02 0.03 0.04 0.05 0.05 0.05 0.05 0.05 0.06 0.07 0.07 0.05 0.04 0.04 0.04 0.04 0.04 0.04 0.04
0.00 0.00 0.00 0.00 0.00 0.00 0.01 0.01 0.02 0.02 0.02 0.01 0.01 0.02 0.02 0.02 0.03 0.03 0.03 0.03 0.03 0.04 0.04 0.05 0.05 0.06 0.06 0.06 0.06 0.06 0.06 0.05 0.04 0.04 0.04 0.04 0.04 0.04
0.00 0.00 0.00 0.00 0.00 0.00 0.01 0.01 0.01 0.01 0.02 0.02 0.01 0.01 0.01 0.01 0.01 0.02 0.03 0.03 0.03 0.03 0.04 0.04 0.04 0.05 0.07 0.07 0.06 0.06 0.05 0.05 0.05 0.04 0.04 0.04 0.04 0.05
0.00 0.00 0.00 0.00 0.00 0.00 0.01 0.01 0.01 0.01 0.01 0.01 0.01 0.01 0.01 0.01 0.01 0.01 0.03 0.04 0.03 0.02 0.03 0.05 0.06 0.06 0.06 0.07 0.06 0.06 0.06 0.05 0.04 0.04 0.04 0.04 0.04 0.04
0.00 0.00 0.00 0.00 0.00 0.00 0.00 0.01 0.01 0.01 0.02 0.02 0.02 0.01 0.01 0.01 0.02 0.01 0.02 0.03 0.03 0.04 0.04 0.04 0.06 0.08 0.08 0.07 0.08 0.07 0.06 0.05 0.04 0.03 0.03 0.04 0.04 0.05
0.00 0.00 0.00 0.00 0.00 0.00 0.00 0.01 0.01 0.02 0.03 0.03 0.03 0.02 0.01 0.01 0.02 0.02 0.02 0.02 0.03 0.03 0.03 0.04 0.04 0.06 0.08 0.08 0.07 0.08 0.08 0.07 0.05 0.03 0.02 0.02 0.03 0.04
0.00 0.00 0.00 0.00 0.01 0.01 0.00 0.01 0.01 0.03 0.04 0.04 0.04 0.03 0.02 0.01 0.02 0.02 0.02 0.02 0.02 0.03 0.02 0.03 0.03 0.04 0.06 0.07 0.07 0.07 0.07 0.07 0.06 0.05 0.03 0.03 0.02 0.03
0.00 0.00 0.00 0.01 0.01 0.01 0.01 0.01 0.02 0.03 0.04 0.04 0.04 0.03 0.03 0.02 0.02 0.03 0.03 0.03 0.03 0.03 0.03 0.03 0.03 0.03 0.05 0.06 0.07 0.07 0.08 0.07 0.06 0.07 0.05 0.04 0.03 0.02
0.00 0.00 0.00 0.00 0.00 0.01 0.01 0.02 0.02 0.03 0.04 0.04 0.04 0.04 0.03 0.03 0.03 0.03 0.04 0.04 0.03 0.04 0.04 0.04 0.04 0.04 0.04 0.06 0.07 0.07 0.07 0.07 0.06 0.06 0.06 0.06 0.03 0.02
0.00 0.00 0.00 0.00 0.00 0.01 0.01 0.01 0.01 0.02 0.03 0.04 0.04 0.05 0.04 0.04 0.04 0.04 0.04 0.05 0.05 0.04 0.05 0.05 0.06 0.06 0.05 0.05 0.05 0.05 0.05 0.05 0.05 0.05 0.05 0.05 0.04 0.03
0.00 0.00 0.00 0.00 0.00 0.00 0.00 0.01 0.01 0.01 0.02 0.03 0.03 0.04 0.05 0.05 0.04 0.05 0.05 0.06 0.06 0.06 0.06 0.06 0.06 0.07 0.06 0.05 0.04 0.04 0.04 0.05 0.05 0.05 0.04 0.04 0.03 0.03
0.00 0.00 0.00 0.00 0.00 0.00 0.00 0.00 0.00 0.00 0.01 0.02 0.03 0.03 0.04 0.04 0.05 0.05 0.06 0.07 0.07 0.07 0.07 0.06 0.05 0.06 0.08 0.08 0.06 0.04 0.03 0.04 0.05 0.06 0.05 0.05 0.05 0.04
0.00 0.00 0.00 0.00 0.00 0.00 0.00 0.00 0.00 0.00 0.01 0.02 0.03 0.03 0.04 0.04 0.04 0.05 0.06 0.07 0.07 0.08 0.07 0.07 0.07 0.09 0.09 0.09 0.07 0.05 0.04 0.04 0.05 0.05 0.06 0.05 0.05 0.05
0.00 0.00 0.00 0.00 0.00 0.00 0.00 0.00 0.00 0.00 0.00 0.01 0.02 0.03 0.03 0.03 0.04 0.04 0.05 0.06 0.07 0.08 0.08 0.08 0.09 0.10 0.09 0.09 0.08 0.07 0.06 0.06 0.06 0.06 0.05 0.05 0.04 0.04
MSLP
1017.54 1017.49 1017.48 1017.50 1017.51 1017.50 1017.43 1017.30 1017.10 1016.84 1016.54 1016.24 1015.95 1015.72 1015.55 1015.45 1015.44 1015.49 1015.59 1015.73 1015.89 1016.05 1016.19 1016.32 1016.42 1016.51 1016.58 1016.66 1016.76 1016.89 1017.07 1017.31 1017.60 1017.93 1018.30 1018.68 1019.05 1019.39
1017.80 1017.76 1017.75 1017.77 1017.79 1017.78 1017.71 1017.58 1017.38 1017.12 1016.82 1016.50 1016.19 1015.92 1015.71 1015.57 1015.51 1015.51 1015.58 1015.68 1015.80 1015.92 1016.02 1016.10 1016.15 1016.17 1016.19 1016.21 1016.25 1016.35 1016.51 1016.74 1017.04 1017.41 1017.83 1018.26 1018.69 1019.08
1018.03 1018.01 1018.01 1018.03 1018.05 1018.04 1017.99 1017.87 1017.68 1017.44 1017.15 1016.83 1016.51 1016.22 1015.97 1015.79 1015.67 1015.61 1015.61 1015.64 1015.69 1015.75 1015.78 1015.79 1015.78 1015.75 1015.70 1015.67 1015.68 1015.75 1015.90 1016.14 1016.46 1016.87 1017.33 1017.82 1018.30 1018.74
1018.24 1018.24 1018.25 1018.28 1018.30 1018.30 1018.26 1018.16 1018.00 1017.78 1017.52 1017.22 1016.92 1016.62 1016.35 1016.12 1015.94 1015.81 1015.73 1015.67 1015.63 1015.60 1015.55 1015.49 1015.41 1015.31 1015.22 1015.16 1015.14 1015.19 1015.34 1015.59 1015.94 1016.37 1016.87 1017.40 1017.92 1018.41
1018.42 1018.43 1018.46 1018.49 1018.52 1018.52 1018.49 1018.42 1018.30 1018.12 1017.90 1017.64 1017.37 1017.08 1016.81 1016.55 1016.32 1016.13 1015.96 1015.81 1015.68 1015.55 1015.42 1015.29 1015.14 1014.99 1014.87 1014.77 1014.74 1014.79 1014.94 1015.19 1015.55 1016.00 1016.52 1017.07 1017.62 1018.13
1018.55 1018.58 1018.61 1018.64 1018.67 1018.68 1018.66 1018.61 1018.52 1018.40 1018.23 1018.03 1017.80 1017.55 1017.29 1017.03 1016.77 1016.53 1016.30 1016.08 1015.87 1015.66 1015.46 1015.26 1015.07 1014.89 1014.74 1014.63 1014.59 1014.63 1014.78 1015.03 1015.38 1015.83 1016.34 1016.88 1017.42 1017.93
1018.62 1018.65 1018.68 1018.71 1018.72 1018.73 1018.72 1018.68 1018.63 1018.54 1018.43 1018.29 1018.12 1017.93 1017.71 1017.47 1017.22 1016.96 1016.70 1016.44 1016.19 1015.94 1015.70 1015.47 1015.25 1015.05 1014.89 1014.78 1014.74 1014.78 1014.92 1015.15 1015.48 1015.89 1016.36 1016.86 1017.37 1017.85
1018.64 1018.66 1018.67 1018.68 1018.68 1018.66 1018.64 1018.61 1018.57 1018.53 1018.47 1018.39 1018.28 1018.15 1017.99 1017.80 1017.59 1017.36 1017.11 1016.85 1016.59 1016.34 1016.10 1015.87 1015.66 1015.48 1015.33 1015.23 1015.20 1015.24 1015.36 1015.56 1015.84 1016.19 1016.60 1017.03 1017.47 1017.89
1018.63 1018.63 1018.61 1018.59 1018.55 1018.51 1018.46 1018.42 1018.38 1018.35 1018.32 1018.29 1018.25 1018.18 1018.09 1017.97 1017.82 1017.64 1017.44 1017.23 1017.01 1016.79 1016.59 1016.39 1016.22 1016.08 1015.96 1015.89 1015.87 1015.91 1016.01 1016.18 1016.41 1016.69 1017.01 1017.36 1017.71 1018.06
1018.63 1018.60 1018.56 1018.49 1018.41 1018.32 1018.23 1018.16 1018.10 1018.07 1018.05 1018.05 1018.04 1018.03 1018.01 1017.95 1017.88 1017.77 1017.64 1017.49 1017.34 1017.19 1017.05 1016.92 1016.81 1016.72 1016.66 1016.63 1016.63 1016.67 1016.76 1016.89 1017.07 1017.28 1017.52 1017.78 1018.05 1018.31
1018.70 1018.64 1018.56 1018.45 1018.33 1018.19 1018.06 1017.94 1017.84 1017.78 1017.75 1017.74 1017.76 1017.77 1017.79 1017.79 1017.77 1017.73 1017.67 1017.60 1017.52 1017.44 1017.37 1017.31 1017.27 1017.25 1017.24 1017.26 1017.29 1017.35 1017.44 1017.55 1017.68 1017.84 1018.02 1018.20 1018.39 1018.58
1018.87 1018.79 1018.68 1018.54 1018.37 1018.19 1018.01 1017.84 1017.70 1017.59 1017.52 1017.48 1017.48 1017.50 1017.52 1017.54 1017.56 1017.56 1017.55 1017.53 1017.51 1017.49 1017.48 1017.48 1017.50 1017.53 1017.58 1017.64 1017.71 1017.80 1017.90 1018.00 1018.12 1018.25 1018.38 1018.52 1018.66 1018.80
1019.13 1019.04 1018.92 1018.77 1018.58 1018.36 1018.14 1017.92 1017.73 1017.56 1017.44 1017.36 1017.31 1017.30 1017.30 1017.30 1017.31 1017.32 1017.32 1017.31 1017.32 1017.33 1017.35 1017.38 1017.43 1017.50 1017.59 1017.69 1017.79 1017.90 1018.02 1018.15 1018.27 1018.40 1018.52 1018.65 1018.77 1018.89
1019.45 1019.37 1019.25 1019.10 1018.90 1018.68 1018.43 1018.18 1017.94 1017.73 1017.55 1017.41 1017.31 1017.23 1017.18 1017.14 1017.10 1017.07 1017.04 1017.02 1017.00 1016.99 1017.00 1017.03 1017.09 1017.16 1017.26 1017.38 1017.50 1017.64 1017.79 1017.94 1018.08 1018.23 1018.38 1018.52 1018.65 1018.78
1019.73 1019.68 1019.59 1019.46 1019.28 1019.06 1018.81 1018.55 1018.29 1018.04 1017.82 1017.62 1017.46 1017.32 1017.20 1017.09 1016.99 1016.89 1016.79 1016.70 1016.63 1016.57 1016.53 1016.51 1016.53 1016.58 1016.66 1016.77 1016.90 1017.05 1017.21 1017.39 1017.57 1017.75 1017.93 1018.10 1018.27 1018.43
1019.89 1019.88 1019.83 1019.74 1019.60 1019.41 1019.18 1018.93 1018.67 1018.41 1018.16 1017.93 1017.71 1017.52 1017.33 1017.15 1016.97 1016.79 1016.61 1016.44 1016.28 1016.13 1016.02 1015.93 1015.88 1015.87 1015.90 1015.97 1016.08 1016.22 1016.39 1016.58 1016.78 1017.00 1017.21 1017.43 1017.64 1017.85
1019.86 1019.89 1019.89 1019.84 1019.74 1019.59 1019.41 1019.19 1018.95 1018.70 1018.45 1018.21 1017.97 1017.74 1017.51 1017.27 1017.03 1016.78 1016.52 1016.26 1016.01 1015.77 1015.56 1015.38 1015.25 1015.15 1015.11 1015.12 1015.18 1015.28 1015.43 1015.61 1015.82 1016.05 1016.29 1016.55 1016.80 1017.05
1019.58 1019.65 1019.69 1019.68 1019.63 1019.53 1019.38 1019.21 1019.01 1018.80 1018.58 1018.36 1018.13 1017.89 1017.65 1017.38 1017.10 1016.80 1016.49 1016.16 1015.84 1015.52 1015.22 1014.95 1014.72 1014.54 1014.41 1014.34 1014.32 1014.37 1014.46 1014.61 1014.79 1015.01 1015.26 1015.53 1015.81 1016.10
1019.06 1019.16 1019.23 1019.25 1019.24 1019.17 1019.08 1018.95 1018.80 1018.64 1018.47 1018.29 1018.10 1017.89 1017.66 1017.40 1017.12 1016.81 1016.47 1016.10 1015.73 1015.36 1014.99 1014.65 1014.34 1014.07 1013.85 1013.69 1013.59 1013.55 1013.58 1013.66 1013.79 1013.98 1014.21 1014.47 1014.76 1015.07
1018.36 1018.47 1018.55 1018.59 1018.59 1018.56 1018.49 1018.41 1018.31 1018.20 1018.08 1017.96 1017.82 1017.66 1017.48 1017.26 1017.01 1016.71 1016.39 1016.02 1015.64 1015.24 1014.84 1014.45 1014.08 1013.74 1013.45 1013.20 1013.01 1012.88 1012.82 1012.82 1012.88 1013.01 1013.19 1013.43 1013.71 1014.03
1017.53 1017.63 1017.71 1017.74 1017.74 1017.72 1017.67 1017.62 1017.56 1017.49 1017.43 1017.37 1017.29 1017.19 1017.07 1016.91 1016.71 1016.47 1016.18 1015.85 1015.49 1015.10 1014.69 1014.28 1013.88 1013.50 1013.14 1012.83 1012.56 1012.34 1012.18 1012.10 1012.08 1012.13 1012.26 1012.46 1012.71 1013.03
1016.62 1016.70 1016.76 1016.77 1016.76 1016.73 1016.68 1016.64 1016.60 1016.58 1016.56 1016.55 1016.53 1016.50 1016.44 1016.35 1016.21 1016.03 1015.80 1015.52 1015.20 1014.85 1014.47 1014.07 1013.67 1013.27 1012.87 1012.50 1012.17 1011.88 1011.64 1011.47 1011.37 1011.35 1011.41 1011.56 1011.79 1012.10
1015.65 1015.71 1015.73 1015.71 1015.68 1015.63 1015.57 1015.53 1015.51 1015.51 1015.52 1015.55 1015.58 1015.60 1015.60 1015.57 1015.50 1015.38 1015.22 1015.00 1014.74 1014.44 1014.11 1013.74 1013.35 1012.95 1012.55 1012.15 1011.77 1011.42 1011.12 1010.88 1010.71 1010.62 1010.63 1010.74 1010.94 1011.23
Thickness
5679 5678 5677 5676 5675 5675 5675 5674 5671 5669 5671 5677 5682 5687 5690 5692 5695 5698 5701 5703 5706 5708 5710 5712 5714 5716 5717 5719 5721 5722 5724 5725 5725 5726 5726 5726 5727 5727
5680 5678 5677 5676 5676 5675 5674 5674 5673 5671 5670 5675 5679 5683 5686 5689 5691 5694 5696 5699 5702 5704 5706 5708 5710 5712 5713 5715 5717 5718 5720 5721 5722 5722 5723 5724 5724 5724
5679 5678 5677 5676 5675 5674 5673 5673 5672 5671 5670 5673 5676 5680 5682 5685 5688 5690 5692 5695 5697 5699 5702 5703 5705 5707 5709 5711 5713 5714 5716 5717 5718 5719 5719 5720 5720 5721
5678 5677 5675 5675 5674 5672 5672 5671 5670 5670 5670 5670 5673 5676 5678 5681 5683 5685 5688 5690 5692 5695 5697 5699 5701 5702 5704 5706 5708 5710 5712 5713 5714 5715 5715 5716 5716 5716
5676 5674 5673 5672 5671 5670 5669 5669 5669 5669 5668 5668 5669 5672 5674 5676 5678 5680 5683 5685 5687 5690 5692 5694 5695 5697 5699 5701 5703 5705 5707 5708 5710 5711 5711 5711 5712 5712
5674 5672 5671 5669 5668 5668 5667 5666 5666 5665 5665 5664 5665 5666 5668 5671 5672 5674 5676 5678 5681 5684 5686 5688 5690 5692 5694 5696 5698 5700 5701 5703 5704 5705 5706 5706 5707 5707
5670 5669 5668 5668 5667 5665 5665 5663 5662 5661 5660 5660 5660 5661 5662 5664 5665 5668 5669 5671 5674 5677 5679 5681 5683 5685 5687 5690 5692 5694 5696 5697 5699 5700 5700 5701 5701 5701
5666 5665 5664 5663 5662 5662 5661 5660 5659 5657 5655 5654 5655 5655 5657 5658 5660 5661 5662 5663 5666 5671 5671 5674 5676 5678 5681 5683 5686 5688 5690 5691 5692 5693 5694 5695 5695 5695
5660 5658 5658 5657 5655 5654 5653 5653 5652 5652 5653 5651 5650 5651 5652 5654 5655 5655 5656 5657 5659 5663 5663 5666 5668 5670 5674 5676 5679 5681 5682 5684 5685 5686 5687 5688 5688 5688
5653 5651 5649 5648 5647 5646 5644 5643 5643 5643 5644 5645 5646 5647 5648 5649 5649 5651 5651 5652 5653 5654 5655 5657 5660 5662 5667 5669 5672 5674 5675 5677 5678 5679 5680 5680 5681 5681
5645 5643 5640 5638 5638 5637 5634 5633 5633 5634 5636 5637 5639 5640 5641 5642 5643 5642 5642 5642 5644 5647 5648 5648 5652 5654 5657 5660 5664 5666 5667 5669 5670 5671 5672 5672 5672 5672
5636 5633 5631 5629 5628 5626 5623 5622 5622 5624 5626 5628 5630 5631 5632 5633 5634 5634 5634 5634 5635 5637 5640 5639 5642 5643 5646 5651 5654 5656 5658 5660 5661 5662 5663 5663 5664 5662
5626 5623 5621 5619 5617 5616 5614 5612 5612 5614 5615 5616 5618 5620 5621 5621 5623 5624 5624 5625 5626 5629 5632 5631 5632 5633 5636 5640 5643 5645 5647 5649 5651 5652 5653 5654 5655 5655
5616 5613 5611 5610 5608 5606 5604 5603 5603 5603 5602 5603 5605 5607 5608 5610 5611 5613 5614 5615 5617 5620 5622 5622 5623 5625 5626 5628 5632 5634 5636 5638 5640 5642 5644 5645 5644 5645
5607 5605 5603 5600 5597 5595 5593 5592 5591 5589 5588 5590 5592 5594 5595 5597 5598 5600 5602 5603 5605 5607 5609 5610 5612 5615 5616 5619 5622 5624 5625 5627 5629 5631 5633 5634 5635 5635
5598 5595 5593 5590 5586 5583 5581 5578 5576 5575 5575 5576 5578 5580 5582 5582 5584 5585 5587 5588 5591 5595 5596 5597 5599 5601 5604 5607 5610 5613 5615 5617 5619 5620 5622 5623 5624 5626
5589 5585 5581 5578 5575 5572 5569 5567 5565 5564 5563 5564 5564 5565 5567 5568 5569 5569 5570 5572 5574 5579 5582 5583 5584 5586 5590 5593 5596 5601 5603 5605 5607 5608 5609 5611 5613 5615
5578 5573 5569 5566 5563 5560 5558 5556 5554 5553 5552 5551 5550 5550 5550 5551 5552 5553 5553 5555 5557 5561 5563 5566 5567 5569 5574 5579 5584 5588 5591 5594 5595 5596 5598 5600 5603 5605
5566 5562 5558 5555 5552 5549 5546 5543 5542 5541 5538 5536 5535 5534 5534 5534 5535 5535 5536 5537 5540 5543 5546 5548 5550 5553 5559 5568 5574 5574 5576 5579 5580 5582 5585 5589 5594 5597
5555 5551 5547 5544 5540 5537 5534 5531 5529 5527 5524 5521 5519 5518 5517 5517 5518 5519 5519 5520 5522 5525 5529 5532 5535 5539 5544 5552 5559 5563 5563 5565 5567 5570 5572 5574 5577 5581
5544 5540 5536 5533 5529 5525 5522 5518 5515 5512 5509 5506 5504 5503 5501 5500 5501 5502 5503 5504 5505 5508 5513 5518 5522 5524 5529 5532 5538 5547 5552 5554 5557 5560 5561 5561 5563 5566
5534 5530 5526 5521 5517 5512 5508 5505 5501 5498 5494 5492 5490 5488 5487 5486 5486 5487 5488 5489 5492 5494 5499 5504 5506 5510 5514 5520 5527 5534 5539 5542 5544 5547 5551 5555 5557 5561
5523 5519 5514 5509 5504 5499 5494 5490 5486 5484 5480 5478 5476 5475 5473 5473 5474 5474 5475 5477 5479 5482 5485 5489 5493 5497 5502 5507 5514 5519 5525 5529 5531 5534 5538 5544 5548 5554